Location: Newark
(35.2672°N, 80.7344°W)
Time: 10:35:27
(UTC+00:00)

Vanguard 2 Rocket - Pass Details

Date: 26 January 2020
Orbit: 554 x 3327 km, 32.9° (Epoch: 19 February)

Event Time Altitude Azimuth Distance (km) Brightness Sun altitude
Rises 17:19:33 0° 266° (W) 4,704 10.6 35.9°
Reaches altitude 10° 17:23:43 10° 248° (WSW) 4,183 10.6 35.9°
Maximum altitude 17:30:50 18° 210° (SSW) 4,249 11.4 36.0°
Drops below altitude 10° 17:40:09 10° 175° (S) 5,628 12.3 36.0°
Sets 17:47:31 0° 160° (SSE) 7,043 12.3 35.9°
